Change the Weather History Date:

Monday, May 14, 2012

  Actual Average Record
Temperature  
Mean Temperature 66 °F 67 °F  
Max Temperature 79 °F 77 °F 91 °F (1995)
Min Temperature 52 °F 56 °F 43 °F (1973)
Degree Days  
Heating Degree Days 0 2  
Month to date heating degree days 11 42  
Since 1 July heating degree days 3212 4106  
Cooling Degree Days 1 4  
Month to date cooling degree days 89 38  
Year to date cooling degree days 225 80  
Growing Degree Days 16 (Base 50)    
Moisture  
Dew Point 55 °F    
Average Humidity 71    
Maximum Humidity 96    
Minimum Humidity 45    
Precipitation  
Precipitation 0.00 in 0.17 in 3.76 in (1967)
Month to date precipitation 0.19 2.45  
Year to date precipitation 10.49 18.73  
Snow  
Snow 0.00 in 0.00 in 0.00 in (2002)
Month to date snowfall 0.0 0.0  
Since 1 July snowfall 0.7 9.1  
Snow Depth 0.00 in    
Sea Level Pressure  
Sea Level Pressure 30.02 in    
Wind  
Wind Speed 5 mph (NNE)    
Max Wind Speed 15 mph    
Max Gust Speed 28 mph    
Visibility 8 miles    
Events      
T = Trace of Precipitation, MM = Missing Value Source: NWS Daily Summary

Daily Weather History Graph

Daily Weather History Graph

Search for Another Location

Airport or City:

Trip Planner

Search our weather history database for the weather conditions in past years. The results will help you decide how hot, cold, wet, or windy it might be!

Date:

Astronomy

May. 14, 2012 Rise Set
Actual Time 5:47 AM CDT 7:56 PM CDT
Civil Twilight 5:18 AM CDT 8:25 PM CDT
Nautical Twilight 4:42 AM CDT 9:00 PM CDT
Astronomical Twilight 4:04 AM CDT 9:39 PM CDT
Moon 2:13 AM CDT (5/14) 2:23 PM CDT (5/14)
Length of Visible Light 15h 06m
Length of Day
14h 08m
Waning Crescent, 32% of the Moon is Illuminated
May 14
Waning Crescent
May 20
New
May 28
First Quarter
Jun 4
Full
Jun 11
Last Quarter

Hourly Weather History & Observations

Time (CDT) Temp. Dew Point Humidity Pressure Visibility Wind Dir Wind Speed Gust Speed Precip Events Conditions
12:53 AM 57.9 °F 52.0 °F 81% 30.01 in 10.0 mi Calm Calm - N/A   Clear
1:53 AM 57.0 °F 52.0 °F 83% 29.99 in 10.0 mi Calm Calm - N/A   Clear
2:53 AM 59.0 °F 51.1 °F 75% 29.99 in 10.0 mi Calm Calm - N/A   Clear
3:53 AM 55.0 °F 51.1 °F 86% 30.01 in 10.0 mi Calm Calm - N/A   Clear
4:53 AM 52.0 °F 50.0 °F 93% 30.00 in 9.0 mi Calm Calm - N/A   Clear
5:53 AM 54.0 °F 50.0 °F 86% 30.01 in 8.0 mi Calm Calm - N/A   Clear
6:26 AM 53.6 °F 51.8 °F 94% 30.02 in 8.0 mi NE 5.8 mph - N/A   Scattered Clouds
6:34 AM 55.4 °F 53.6 °F 94% 30.02 in 7.0 mi NNE 5.8 mph - N/A   Mostly Cloudy
6:53 AM 57.0 °F 55.0 °F 93% 30.02 in 4.0 mi NE 5.8 mph - N/A   Overcast
7:02 AM 57.2 °F 55.4 °F 94% 30.03 in 3.0 mi NE 6.9 mph - N/A   Overcast
7:27 AM 59.0 °F 57.2 °F 94% 30.04 in 4.0 mi NNE 4.6 mph - N/A   Overcast
7:53 AM 60.1 °F 57.0 °F 90% 30.04 in 5.0 mi NNE 6.9 mph - N/A   Overcast
8:19 AM 62.6 °F 57.2 °F 82% 30.05 in 7.0 mi NNE 5.8 mph - N/A   Overcast
8:53 AM 63.0 °F 57.9 °F 84% 30.05 in 9.0 mi NNE 10.4 mph - N/A   Overcast
9:53 AM 64.9 °F 57.0 °F 75% 30.06 in 9.0 mi NNE 10.4 mph - N/A   Overcast
10:53 AM 66.9 °F 57.9 °F 73% 30.06 in 10.0 mi NNE 8.1 mph - N/A   Overcast
11:53 AM 73.0 °F 57.0 °F 57% 30.06 in 10.0 mi NE 11.5 mph - N/A   Scattered Clouds
12:53 PM 77.0 °F 57.0 °F 50% 30.04 in 10.0 mi NE 10.4 mph - N/A   Scattered Clouds
1:53 PM 78.8 °F 55.4 °F 44% 30.03 in 10.0 mi NE 8.1 mph - N/A   Scattered Clouds
2:53 PM 77.0 °F 57.0 °F 50% 30.01 in 10.0 mi NE 10.4 mph - N/A   Scattered Clouds
3:53 PM 79.0 °F 55.0 °F 44% 29.99 in 10.0 mi North 6.9 mph 18.4 mph N/A   Partly Cloudy
4:53 PM 77.0 °F 55.0 °F 47% 29.99 in 10.0 mi North 9.2 mph - N/A   Clear
5:53 PM 77.0 °F 55.9 °F 48% 29.98 in 10.0 mi NE 6.9 mph - N/A   Clear
6:53 PM 75.0 °F 55.9 °F 51% 29.98 in 10.0 mi NE 4.6 mph - N/A   Clear
7:53 PM 71.1 °F 57.0 °F 61% 29.99 in 10.0 mi Calm Calm - N/A   Clear
8:53 PM 63.0 °F 57.9 °F 84% 30.00 in 8.0 mi Calm Calm - N/A   Clear
9:53 PM 59.0 °F 55.4 °F 88% 30.01 in 10.0 mi WSW 3.5 mph - N/A   Clear
10:53 PM 57.9 °F 55.9 °F 93% 30.01 in 9.0 mi Calm Calm - N/A   Clear
11:53 PM 57.9 °F 55.0 °F 90% 30.01 in 7.0 mi Calm Calm - N/A   Clear